When you browse on this site, cookies collect data to enhance your experience and personalize the content and advertising you see.
Visit our Privacy Policy to learn more. By continuing to use the site, you agree to this use of cookies and data.
  • In Latvia
  • List of Countries
  • For 7 days
  • Water Temperature
  • Weather Map
  • Weather Widgets
  • user-avatar
    Login

    Hourly Weather Onex

    Today, 22 October, Tuesday

    Time Temperature Precipitation Wind Pressure Humidity
    00:00 +14°C° 0.4 mm 1 mps 729 mmHg 97%
    01:00 +13°C° 0 mm 1 mps 728 mmHg 97%
    02:00 +13°C° 0 mm 1 mps 728 mmHg 97%
    03:00 +13°C° 0 mm 1 mps 728 mmHg 96%
    04:00 +13°C° 0 mm 1 mps 728 mmHg 96%
    05:00 +13°C° 0 mm 1 mps 728 mmHg 96%
    06:00 +13°C° 0 mm 1 mps 728 mmHg 96%
    07:00 +14°C° 0 mm 1 mps 728 mmHg 94%
    08:00 +15°C° 0 mm 1 mps 729 mmHg 93%
    09:00 +16°C° 0 mm 1 mps 729 mmHg 91%
    10:00 +18°C° 0 mm 1 mps 728 mmHg 88%
    11:00 +18°C° 0 mm 2 mps 728 mmHg 85%
    12:00 +18°C° 0 mm 2 mps 728 mmHg 82%
    13:00 +18°C° 0 mm 2 mps 728 mmHg 82%
    14:00 +18°C° 0 mm 2 mps 727 mmHg 83%
    15:00 +18°C° 0 mm 2 mps 727 mmHg 84%
    16:00 +17°C° 0 mm 2 mps 727 mmHg 87%
    17:00 +16°C° 0 mm 2 mps 727 mmHg 91%
    18:00 +15°C° 0 mm 2 mps 727 mmHg 95%
    19:00 +15°C° 0 mm 2 mps 727 mmHg 94%
    20:00 +14°C° 0 mm 2 mps 727 mmHg 94%
    21:00 +14°C° 0 mm 2 mps 727 mmHg 94%
    22:00 +14°C° 0 mm 2 mps 726 mmHg 94%
    23:00 +14°C° 0 mm 1 mps 726 mmHg 93%

    Tomorrow, 23 October, Wednesday

    Time Temperature Precipitation Wind Pressure Humidity
    00:00 +14°C° 0 mm 1 mps 726 mmHg 93%
    01:00 +14°C° 0 mm 1 mps 726 mmHg 93%
    02:00 +13°C° 0 mm 2 mps 725 mmHg 92%
    03:00 +13°C° 0 mm 2 mps 725 mmHg 92%
    04:00 +13°C° 0 mm 2 mps 725 mmHg 91%
    05:00 +13°C° 0 mm 2 mps 724 mmHg 90%
    06:00 +13°C° 0 mm 2 mps 724 mmHg 88%
    07:00 +14°C° 0 mm 2 mps 724 mmHg 83%
    08:00 +16°C° 0 mm 2 mps 724 mmHg 78%
    09:00 +18°C° 0 mm 2 mps 724 mmHg 73%
    10:00 +19°C° 0 mm 2 mps 724 mmHg 69%
    11:00 +21°C° 0 mm 1 mps 724 mmHg 65%
    12:00 +22°C° 0 mm 1 mps 724 mmHg 60%
    13:00 +21°C° 0 mm 1 mps 723 mmHg 65%
    14:00 +21°C° 0 mm 1 mps 723 mmHg 69%
    15:00 +21°C° 0 mm 1 mps 722 mmHg 73%
    16:00 +20°C° 0 mm 1 mps 722 mmHg 73%
    17:00 +19°C° 0 mm 1 mps 722 mmHg 72%
    18:00 +18°C° 0 mm 1 mps 722 mmHg 72%
    19:00 +16°C° 0 mm 1 mps 722 mmHg 73%
    20:00 +16°C° 0 mm 1 mps 722 mmHg 74%
    21:00 +15°C° 0 mm 1 mps 722 mmHg 75%
    22:00 +15°C° 0 mm 1 mps 722 mmHg 77%
    23:00 +15°C° 0 mm 1 mps 721 mmHg 79%

    Day after tomorrow, 24 October, Thursday

    Time Temperature Precipitation Wind Pressure Humidity
    00:00 +14°C° 0 mm 1 mps 721 mmHg 81%
    01:00 +14°C° 0.1 mm 1 mps 721 mmHg 84%
    02:00 +14°C° 0.1 mm 1 mps 721 mmHg 86%
    03:00 +14°C° 0.1 mm 2 mps 722 mmHg 89%
    04:00 +14°C° 0.3 mm 2 mps 722 mmHg 91%
    05:00 +13°C° 0.3 mm 1 mps 721 mmHg 92%
    06:00 +13°C° 0.3 mm 1 mps 721 mmHg 93%
    07:00 +14°C° 0 mm 1 mps 722 mmHg 90%
    08:00 +15°C° 0 mm 1 mps 722 mmHg 87%
    09:00 +16°C° 0 mm 1 mps 722 mmHg 84%
    10:00 +18°C° 0.1 mm 1 mps 722 mmHg 82%
    11:00 +17°C° 0.1 mm 2 mps 723 mmHg 80%
    12:00 +18°C° 0.1 mm 2 mps 723 mmHg 78%
    13:00 +17°C° 0.2 mm 2 mps 723 mmHg 80%
    14:00 +17°C° 0.2 mm 2 mps 723 mmHg 82%
    15:00 +17°C° 0.2 mm 2 mps 723 mmHg 83%
    16:00 +16°C° 0 mm 2 mps 723 mmHg 86%
    17:00 +14°C° 0 mm 1 mps 724 mmHg 90%
    18:00 +13°C° 0 mm 1 mps 724 mmHg 93%
    19:00 +13°C° 0 mm 1 mps 725 mmHg 93%
    20:00 +13°C° 0 mm 1 mps 726 mmHg 93%
    21:00 +13°C° 0 mm 1 mps 726 mmHg 93%
    22:00 +12°C° 0 mm 1 mps 727 mmHg 93%
    23:00 +12°C° 0 mm 1 mps 727 mmHg 93%

    25 October, Friday

    Time Temperature Precipitation Wind Pressure Humidity
    00:00 +12°C° 0 mm 1 mps 727 mmHg 93%
    01:00 +12°C° 0 mm 1 mps 727 mmHg 93%
    02:00 +12°C° 0 mm 1 mps 728 mmHg 93%
    03:00 +12°C° 0 mm 1 mps 728 mmHg 94%
    04:00 +11°C° 0 mm 1 mps 728 mmHg 94%
    05:00 +10°C° 0 mm 0 mps 728 mmHg 94%
    06:00 +9°C° 0 mm 0 mps 728 mmHg 95%
    07:00 +11°C° 0 mm 1 mps 729 mmHg 90%
    08:00 +13°C° 0 mm 1 mps 729 mmHg 85%
    09:00 +14°C° 0 mm 1 mps 729 mmHg 81%
    10:00 +15°C° 0 mm 1 mps 729 mmHg 77%
    11:00 +16°C° 0 mm 1 mps 729 mmHg 72%
    12:00 +18°C° 0 mm 1 mps 728 mmHg 68%
    13:00 +18°C° 0 mm 1 mps 728 mmHg 70%
    14:00 +18°C° 0 mm 1 mps 728 mmHg 72%
    15:00 +16°C° 0 mm 1 mps 728 mmHg 73%
    16:00 +14°C° 0 mm 0 mps 728 mmHg 79%
    17:00 +12°C° 0 mm 0 mps 728 mmHg 86%
    18:00 +11°C° 0 mm 0 mps 728 mmHg 92%
    19:00 +10°C° 0 mm 0 mps 728 mmHg 92%
    20:00 +10°C° 0 mm 0 mps 728 mmHg 91%
    21:00 +10°C° 0 mm 0 mps 728 mmHg 91%
    22:00 +11°C° 0 mm 1 mps 728 mmHg 90%
    23:00 +11°C° 0 mm 1 mps 728 mmHg 88%

    26 October, Saturday

    Time Temperature Precipitation Wind Pressure Humidity
    00:00 +11°C° 0 mm 1 mps 728 mmHg 87%
    01:00 +11°C° 0 mm 1 mps 728 mmHg 86%
    02:00 +11°C° 0 mm 1 mps 728 mmHg 85%
    03:00 +11°C° 0 mm 1 mps 728 mmHg 84%
    04:00 +11°C° 0 mm 1 mps 728 mmHg 81%
    05:00 +11°C° 0 mm 1 mps 728 mmHg 79%
    06:00 +11°C° 0 mm 1 mps 728 mmHg 77%
    07:00 +12°C° 0 mm 0 mps 729 mmHg 72%
    08:00 +14°C° 0 mm 0 mps 729 mmHg 68%
    09:00 +16°C° 0 mm 0 mps 729 mmHg 63%
    10:00 +18°C° 0 mm 0 mps 729 mmHg 59%
    11:00 +19°C° 0 mm 0 mps 729 mmHg 55%
    12:00 +22°C° 0 mm 1 mps 729 mmHg 50%
    13:00 +19°C° 0 mm 0 mps 728 mmHg 55%
    14:00 +19°C° 0 mm 0 mps 728 mmHg 60%
    15:00 +18°C° 0 mm 0 mps 728 mmHg 65%
    16:00 +16°C° 0 mm 0 mps 728 mmHg 68%
    17:00 +14°C° 0 mm 0 mps 728 mmHg 72%
    18:00 +13°C° 0 mm 1 mps 728 mmHg 75%
    19:00 +13°C° 0 mm 1 mps 728 mmHg 73%
    20:00 +13°C° 0 mm 1 mps 728 mmHg 72%
    21:00 +12°C° 0 mm 1 mps 728 mmHg 71%
    22:00 +12°C° 0 mm 1 mps 728 mmHg 71%
    23:00 +12°C° 0 mm 1 mps 728 mmHg 71%

    27 October, Sunday

    Time Temperature Precipitation Wind Pressure Humidity
    00:00 +12°C° 0 mm 1 mps 728 mmHg 72%
    01:00 +12°C° 0 mm 1 mps 727 mmHg 71%
    02:00 +12°C° 0 mm 1 mps 727 mmHg 70%
    03:00 +12°C° 0 mm 1 mps 727 mmHg 69%
    04:00 +11°C° 0 mm 0 mps 727 mmHg 68%
    05:00 +10°C° 0 mm 0 mps 727 mmHg 68%
    06:00 +10°C° 0 mm 0 mps 727 mmHg 67%
    07:00 +12°C° 0 mm 0 mps 727 mmHg 65%
    08:00 +14°C° 0 mm 0 mps 727 mmHg 63%
    09:00 +16°C° 0 mm 0 mps 728 mmHg 60%
    10:00 +17°C° 0 mm 0 mps 727 mmHg 58%
    11:00 +18°C° 0 mm 0 mps 727 mmHg 57%
    12:00 +21°C° 0 mm 1 mps 727 mmHg 55%
    13:00 +20°C° 0 mm 1 mps 727 mmHg 60%
    14:00 +18°C° 0 mm 0 mps 726 mmHg 64%
    15:00 +17°C° 0 mm 0 mps 726 mmHg 69%
    16:00 +16°C° 0 mm 0 mps 726 mmHg 74%
    17:00 +14°C° 0 mm 0 mps 726 mmHg 78%
    18:00 +13°C° 0 mm 0 mps 726 mmHg 82%
    19:00 +12°C° 0 mm 0 mps 726 mmHg 81%
    20:00 +12°C° 0 mm 0 mps 726 mmHg 81%
    21:00 +12°C° 0 mm 0 mps 727 mmHg 81%
    22:00 +12°C° 0 mm 0 mps 726 mmHg 80%
    23:00 +12°C° 0 mm 0 mps 726 mmHg 80%

    28 October, Monday

    Time Temperature Precipitation Wind Pressure Humidity
    00:00 +12°C° 0 mm 0 mps 726 mmHg 79%
    01:00 +12°C° 0 mm 0 mps 726 mmHg 79%
    02:00 +12°C° 0 mm 0 mps 726 mmHg 79%
    03:00 +12°C° 0 mm 0 mps 725 mmHg 79%
    04:00 +12°C° 0 mm 0 mps 725 mmHg 79%
    05:00 +12°C° 0 mm 0 mps 725 mmHg 79%
    06:00 +12°C° 0 mm 0 mps 725 mmHg 80%
    07:00 +13°C° 0 mm 0 mps 725 mmHg 77%
    08:00 +14°C° 0 mm 0 mps 726 mmHg 74%
    09:00 +15°C° 0 mm 0 mps 726 mmHg 71%
    10:00 +16°C° 0 mm 0 mps 725 mmHg 69%
    11:00 +19°C° 0 mm 1 mps 725 mmHg 66%
    12:00 +20°C° 0 mm 1 mps 725 mmHg 63%
    13:00 +20°C° 0 mm 1 mps 725 mmHg 66%
    14:00 +20°C° 0 mm 1 mps 725 mmHg 69%
    15:00 +17°C° 0 mm 0 mps 724 mmHg 73%
    16:00 +16°C° 0 mm 0 mps 724 mmHg 77%
    17:00 +14°C° 0 mm 0 mps 724 mmHg 81%
    18:00 +13°C° 0 mm 0 mps 724 mmHg 85%
    19:00 +13°C° 0 mm 0 mps 724 mmHg 84%
    20:00 +12°C° 0 mm 0 mps 724 mmHg 84%
    21:00 +13°C° 0 mm 1 mps 724 mmHg 84%
    22:00 +13°C° 0 mm 1 mps 724 mmHg 83%
    23:00 +13°C° 0 mm 1 mps 723 mmHg 82%
    Show more